Terminal Aerodrome Forecast
Issued by NWS

Home | Current Version | Previous Version | Text Only | Print | Product List | Glossary On
Versions: 1 2 3 4 5 6 7 8 9 10 11 12 13 14 15 16 17 18 19 20 21 22 23 24 25 26 27 28 29 30 31 32 33 34 35 36 37 38 39 40 41 42 43 44 45 46 47 48 49 50
000
FTUS41 KCTP 121446 AAD
TAFLNS
TAF AMD
KLNS 121446Z 1215/1312 00000KT P6SM FEW070 OVC090 WS020/22035KT
     FM121530 20006KT P6SM OVC050
     FM121900 30015G25KT P6SM BKN080
     FM130200 30020G32KT P6SM SCT100=

USA.gov is the U.S. government's official web portal to all federal, state and local government web resources and services.